• In Germany
  • List of Countries
  • For 7 days
  • Water Temperature
  • Satellite Maps
  • Weather Map
  • Weather Widgets
  • user-avatar
    Login

    Hourly Weather Ghazni

    Today, 11 December, Monday

    Time Temperature Precipitation Wind Pressure Humidity
    00:00 +2°C° 0 mm 1 mps 582 mmHg 28%
    01:00 +2°C° 0 mm 1 mps 581 mmHg 28%
    02:00 +1°C° 0 mm 1 mps 581 mmHg 28%
    03:00 -1°C° 0 mm 2 mps 581 mmHg 28%
    04:00 -1°C° 0 mm 2 mps 581 mmHg 28%
    05:00 -1°C° 0 mm 3 mps 581 mmHg 27%
    06:00 -1°C° 0 mm 3 mps 581 mmHg 27%
    07:00 -2°C° 0 mm 2 mps 581 mmHg 28%
    08:00 -2°C° 0 mm 2 mps 581 mmHg 28%
    09:00 +1°C° 0 mm 2 mps 581 mmHg 26%
    10:00 +2°C° 0 mm 2 mps 582 mmHg 24%
    11:00 +4°C° 0 mm 2 mps 582 mmHg 22%
    12:00 +4°C° 0 mm 2 mps 582 mmHg 22%
    13:00 +4°C° 0 mm 2 mps 581 mmHg 22%
    14:00 +6°C° 0 mm 1 mps 581 mmHg 23%
    15:00 +5°C° 0 mm 1 mps 580 mmHg 25%
    16:00 +5°C° 0 mm 1 mps 580 mmHg 27%
    17:00 +4°C° 0 mm 1 mps 579 mmHg 31%
    18:00 +3°C° 0 mm 1 mps 579 mmHg 33%
    19:00 +2°C° 0 mm 1 mps 579 mmHg 34%
    20:00 +2°C° 0 mm 1 mps 579 mmHg 35%
    21:00 +1°C° 0 mm 1 mps 579 mmHg 36%
    22:00 0°C° 0 mm 1 mps 579 mmHg 37%
    23:00 -2°C° 0 mm 2 mps 579 mmHg 39%

    Tomorrow, 12 December, Tuesday

    Time Temperature Precipitation Wind Pressure Humidity
    00:00 -1°C° 0 mm 1 mps 579 mmHg 40%
    01:00 -1°C° 0 mm 1 mps 578 mmHg 41%
    02:00 -1°C° 0 mm 1 mps 578 mmHg 42%
    03:00 -2°C° 0 mm 1 mps 578 mmHg 43%
    04:00 -2°C° 0 mm 1 mps 578 mmHg 43%
    05:00 -2°C° 0 mm 1 mps 578 mmHg 44%
    06:00 -3°C° 0 mm 1 mps 578 mmHg 44%
    07:00 -3°C° 0 mm 1 mps 579 mmHg 43%
    08:00 -3°C° 0 mm 1 mps 579 mmHg 43%
    09:00 -1°C° 0 mm 1 mps 579 mmHg 39%
    10:00 0°C° 0 mm 1 mps 580 mmHg 36%
    11:00 +1°C° 0 mm 1 mps 580 mmHg 32%
    12:00 +2°C° 0 mm 1 mps 580 mmHg 30%
    13:00 +2°C° 0 mm 1 mps 580 mmHg 29%
    14:00 +3°C° 0 mm 1 mps 580 mmHg 27%
    15:00 +3°C° 0 mm 1 mps 580 mmHg 29%
    16:00 +2°C° 0 mm 1 mps 580 mmHg 31%
    17:00 +2°C° 0 mm 1 mps 580 mmHg 34%
    18:00 +1°C° 0 mm 1 mps 580 mmHg 36%
    19:00 0°C° 0 mm 1 mps 581 mmHg 38%
    20:00 0°C° 0 mm 1 mps 581 mmHg 40%
    21:00 -1°C° 0 mm 1 mps 581 mmHg 41%
    22:00 -1°C° 0 mm 1 mps 582 mmHg 43%
    23:00 -1°C° 0 mm 1 mps 582 mmHg 44%

    Day after tomorrow, 13 December, Wednesday

    Time Temperature Precipitation Wind Pressure Humidity
    00:00 -2°C° 0 mm 1 mps 582 mmHg 45%
    01:00 -2°C° 0 mm 1 mps 582 mmHg 47%
    02:00 -2°C° 0 mm 1 mps 582 mmHg 48%
    03:00 -2°C° 0 mm 1 mps 581 mmHg 49%
    04:00 -3°C° 0 mm 1 mps 581 mmHg 50%
    05:00 -3°C° 0 mm 1 mps 581 mmHg 51%
    06:00 -3°C° 0 mm 1 mps 581 mmHg 51%
    07:00 -3°C° 0 mm 1 mps 582 mmHg 51%
    08:00 -5°C° 0 mm 2 mps 582 mmHg 51%
    09:00 -4°C° 0 mm 2 mps 582 mmHg 49%
    10:00 -3°C° 0 mm 2 mps 583 mmHg 46%
    11:00 -2°C° 0 mm 2 mps 583 mmHg 44%
    12:00 +1°C° 0 mm 1 mps 583 mmHg 42%
    13:00 +1°C° 0 mm 1 mps 582 mmHg 40%
    14:00 +1°C° 0 mm 1 mps 582 mmHg 39%
    15:00 +1°C° 0 mm 1 mps 581 mmHg 40%
    16:00 +1°C° 0 mm 1 mps 581 mmHg 42%
    17:00 +1°C° 0 mm 1 mps 581 mmHg 43%
    18:00 0°C° 0 mm 1 mps 581 mmHg 45%
    19:00 -1°C° 0 mm 1 mps 581 mmHg 47%
    20:00 -1°C° 0 mm 1 mps 581 mmHg 49%
    21:00 -2°C° 0 mm 1 mps 581 mmHg 50%
    22:00 -2°C° 0 mm 1 mps 582 mmHg 50%
    23:00 -4°C° 0 mm 2 mps 582 mmHg 51%

    14 December, Thursday

    Time Temperature Precipitation Wind Pressure Humidity
    00:00 -4°C° 0 mm 2 mps 582 mmHg 51%
    01:00 -5°C° 0 mm 2 mps 582 mmHg 51%
    02:00 -5°C° 0 mm 2 mps 581 mmHg 52%
    03:00 -5°C° 0 mm 2 mps 581 mmHg 52%
    04:00 -5°C° 0 mm 2 mps 581 mmHg 52%
    05:00 -5°C° 0 mm 2 mps 581 mmHg 53%
    06:00 -5°C° 0 mm 2 mps 582 mmHg 53%
    07:00 -5°C° 0 mm 2 mps 582 mmHg 53%
    08:00 -5°C° 0 mm 2 mps 583 mmHg 53%
    09:00 -5°C° 0 mm 2 mps 583 mmHg 50%
    10:00 -4°C° 0 mm 2 mps 583 mmHg 46%
    11:00 -3°C° 0 mm 2 mps 584 mmHg 43%
    12:00 -2°C° 0 mm 2 mps 584 mmHg 42%
    13:00 -2°C° 0 mm 2 mps 583 mmHg 40%
    14:00 -2°C° 0 mm 2 mps 583 mmHg 38%
    15:00 -2°C° 0 mm 2 mps 583 mmHg 40%
    16:00 -2°C° 0 mm 2 mps 583 mmHg 41%
    17:00 -2°C° 0 mm 2 mps 583 mmHg 42%
    18:00 -3°C° 0 mm 2 mps 583 mmHg 45%
    19:00 -4°C° 0 mm 2 mps 583 mmHg 49%
    20:00 -4°C° 0 mm 2 mps 584 mmHg 52%
    21:00 -5°C° 0 mm 2 mps 584 mmHg 56%
    22:00 -5°C° 0 mm 2 mps 584 mmHg 60%
    23:00 -5°C° 0 mm 2 mps 584 mmHg 65%

    15 December, Friday

    Time Temperature Precipitation Wind Pressure Humidity
    00:00 -4°C° 0 mm 1 mps 584 mmHg 66%
    01:00 -4°C° 0 mm 1 mps 584 mmHg 67%
    02:00 -4°C° 0 mm 1 mps 583 mmHg 68%
    03:00 -4°C° 0 mm 1 mps 583 mmHg 68%
    04:00 -4°C° 0 mm 1 mps 584 mmHg 68%
    05:00 -6°C° 0 mm 1 mps 584 mmHg 67%
    06:00 -7°C° 0 mm 2 mps 584 mmHg 66%
    07:00 -7°C° 0 mm 2 mps 584 mmHg 64%
    08:00 -7°C° 0 mm 2 mps 585 mmHg 63%
    09:00 -6°C° 0 mm 2 mps 585 mmHg 57%
    10:00 -3°C° 0 mm 1 mps 586 mmHg 51%
    11:00 -2°C° 0 mm 1 mps 586 mmHg 45%
    12:00 -1°C° 0 mm 1 mps 586 mmHg 42%
    13:00 0°C° 0 mm 1 mps 586 mmHg 38%
    14:00 0°C° 0 mm 1 mps 585 mmHg 35%
    15:00 0°C° 0 mm 1 mps 585 mmHg 36%
    16:00 0°C° 0 mm 1 mps 585 mmHg 37%
    17:00 0°C° 0 mm 1 mps 585 mmHg 39%
    18:00 -1°C° 0 mm 1 mps 585 mmHg 39%
    19:00 -1°C° 0 mm 1 mps 586 mmHg 40%
    20:00 -2°C° 0 mm 1 mps 586 mmHg 41%
    21:00 -2°C° 0 mm 1 mps 586 mmHg 41%
    22:00 -2°C° 0 mm 1 mps 586 mmHg 41%
    23:00 -4°C° 0 mm 2 mps 586 mmHg 41%

    16 December, Saturday

    Time Temperature Precipitation Wind Pressure Humidity
    00:00 -4°C° 0 mm 2 mps 586 mmHg 41%
    01:00 -4°C° 0 mm 2 mps 586 mmHg 42%
    02:00 -5°C° 0 mm 2 mps 586 mmHg 42%
    03:00 -5°C° 0 mm 2 mps 586 mmHg 43%
    04:00 -5°C° 0 mm 2 mps 585 mmHg 43%
    05:00 -5°C° 0 mm 2 mps 585 mmHg 43%
    06:00 -5°C° 0 mm 2 mps 586 mmHg 43%
    07:00 -4°C° 0 mm 2 mps 586 mmHg 43%
    08:00 -4°C° 0 mm 2 mps 586 mmHg 43%
    09:00 -1°C° 0 mm 1 mps 587 mmHg 40%
    10:00 +1°C° 0 mm 1 mps 587 mmHg 37%
    11:00 +2°C° 0 mm 1 mps 587 mmHg 33%
    12:00 +3°C° 0 mm 1 mps 587 mmHg 32%
    13:00 +3°C° 0 mm 1 mps 586 mmHg 31%
    14:00 +4°C° 0 mm 1 mps 586 mmHg 30%
    15:00 +3°C° 0 mm 1 mps 586 mmHg 32%
    16:00 +3°C° 0 mm 1 mps 585 mmHg 34%
    17:00 +2°C° 0 mm 1 mps 585 mmHg 37%
    18:00 +2°C° 0 mm 1 mps 585 mmHg 38%
    19:00 +1°C° 0 mm 1 mps 586 mmHg 38%
    20:00 +1°C° 0 mm 1 mps 586 mmHg 39%
    21:00 +1°C° 0 mm 1 mps 586 mmHg 40%
    22:00 +1°C° 0 mm 1 mps 586 mmHg 40%
    23:00 0°C° 0 mm 1 mps 586 mmHg 41%
    Show more